AO-07 1 07530U 74089B 21042.49622479 -.00000050 00000-0 -26978-4 0 9998 2 07530 101.8380 17.2136 0011959 264.5287 210.9829 12.53647293115940 UO-11 1 14781U 84021B 21042.51362613 .00000091 00000-0 17141-4 0 9990 2 14781 97.5909 48.5723 0009592 129.3102 230.8965 14.83245873967262 LO-19 1 20442U 90005G 21042.52409295 -.00000016 00000-0 10502-4 0 9991 2 20442 98.7252 356.9592 0011922 166.2923 193.8586 14.32975695622797 HUBBLE 1 20580U 90037B 21042.69366508 .00000440 00000-0 15711-4 0 9993 2 20580 28.4689 177.1429 0002747 144.2351 235.9072 15.09553551492232 MET-2/21 1 22782U 93055A 21042.49780281 .00000024 00000-0 86044-5 0 9994 2 22782 82.5476 43.8741 0021113 285.9083 187.1378 13.83832155386107 AO-27 1 22825U 93061C 21042.51294432 -.00000005 00000-0 16048-4 0 9996 2 22825 98.9242 56.9902 0009161 46.5804 313.6138 14.30105809427986 IO-26 1 22826U 93061D 21042.72295179 -.00000001 00000-0 17449-4 0 9991 2 22826 98.9183 57.1264 0009497 34.2610 325.9183 14.30443544428502 FO-29 1 24278U 96046B 21042.52438676 -.00000013 00000-0 20101-4 0 9991 2 24278 98.5809 127.1211 0351190 115.7970 247.9842 13.53101952209218 NOAA-15 1 25338U 98030A 21042.77136396 .00000021 00000-0 27201-4 0 9991 2 25338 98.6964 72.3320 0009377 288.1552 71.8607 14.26012520183339 GO-32 1 25397U 98043D 21042.46607773 -.00000024 00000-0 90800-5 0 9998 2 25397 98.7574 348.4617 0002369 88.0344 272.1106 14.23700949173568 ISS 1 25544U 98067A 21042.88424556 .00003340 00000-0 68835-4 0 9995 2 25544 51.6439 242.4869 0002944 4.4533 142.1818 15.48967841269176 NO-44 1 26931U 01043C 21042.75764909 -.00000015 00000-0 26053-4 0 9992 2 26931 67.0493 244.8295 0007353 269.7555 90.2704 14.30605890 11373 SO-50 1 27607U 02058C 21042.32275596 -.00000019 00000-0 17554-4 0 9992 2 27607 64.5569 4.0265 0029822 75.3552 285.0854 14.75710224975945 CO-55 1 27844U 03031E 21042.48241483 .00000047 00000-0 40846-4 0 9992 2 27844 98.6822 52.5932 0010947 84.6323 275.6103 14.22287422914074 CO-57 1 27848U 03031J 21042.50862135 .00000034 00000-0 35181-4 0 9994 2 27848 98.6882 53.1871 0010853 96.2512 263.9902 14.21867356913916 RS-22 1 27939U 03042A 21042.80984369 .00000062 00000-0 19885-4 0 9998 2 27939 98.1186 180.9403 0011865 321.4746 38.5618 14.66942501929108 NOAA-18 1 28654U 05018A 21042.57958180 .00000079 00000-0 67491-4 0 9998 2 28654 99.0117 106.8530 0013306 277.1599 82.8059 14.12580278810672 CO-58 1 28895U 05043F 21042.79514793 .00000110 00000-0 30066-4 0 9999 2 28895 98.0378 178.9336 0015654 244.0085 115.9505 14.63863454815857 Falconsat-3 1 30776U 07006E 21042.80632870 .00003018 00000-0 76217-4 0 9998 2 30776 35.4333 187.0109 0002614 211.9435 148.1134 15.39525707773722 CO-65 1 32785U 08021C 21042.50567263 .00000227 00000-0 29980-4 0 9992 2 32785 97.5979 26.3413 0014366 63.7449 296.5243 14.88628968693509 AAUSAT2 1 32788U 08021F 21042.49908179 .00000184 00000-0 21578-4 0 9995 2 32788 97.4997 42.4925 0011171 340.7474 19.3324 14.95385478695030 DO-64 1 32789U 08021G 21042.53556640 .00001156 00000-0 77989-4 0 9990 2 32789 97.3920 82.6897 0011202 208.3985 151.6634 15.08477112697848 CO-66 1 32791U 08021J 21042.49182214 .00000283 00000-0 33756-4 0 9994 2 32791 97.5604 32.3503 0014046 31.9018 328.3049 14.91272451694002 RS-30 1 32953U 08025A 21042.67401138 .00000028 00000-0 12906-3 0 9997 2 32953 82.5053 129.1668 0018590 249.2458 110.6630 12.43099902577350 PRISM 1 33493U 09002B 21042.44624156 .00000042 00000-0 92282-5 0 9998 2 33493 98.1738 359.0599 0015056 349.6660 10.4249 14.97427259655467 NOAA-19 1 33591U 09005A 21042.81446956 .00000013 00000-0 32272-4 0 9991 2 33591 99.1923 60.3493 0014767 123.0371 237.2221 14.12451753619180 TISAT-1 1 36799U 10035E 21042.47558222 .00000315 00000-0 37496-4 0 9999 2 36799 98.2035 228.1901 0010945 266.2773 93.7193 14.91597221574557 JUGNU 1 37839U 11058B 21042.88012681 .00000319 00000-0 28206-4 0 9993 2 37839 19.9606 270.7651 0019005 147.9726 313.6840 14.12703244482795 SRMSAT 1 37841U 11058D 21042.53429159 .00000306 00000-0 23165-4 0 9995 2 37841 19.9733 342.1358 0011743 351.2201 164.1523 14.10684620481910 AO-71 1 37854U 11061E 21042.54428704 .00001019 00000-0 57739-4 0 9995 2 37854 101.7120 263.6132 0155892 70.4762 291.3213 15.08144696507502 HRBE 1 37855U 11061F 21042.64443319 .00000882 00000-0 50285-4 0 9992 2 37855 101.7258 260.8071 0168329 84.7398 277.2997 15.07182259507696 HORYU-2 1 38340U 12025D 21042.12190079 .00000164 00000-0 31738-4 0 9993 2 38340 98.2495 107.0337 0011357 5.7713 354.3625 14.75973188459759 RS-40 1 38735U 12041C 21042.42426261 .00000025 00000-0 11294-3 0 9997 2 38735 82.4745 211.6496 0016964 3.4648 356.6557 12.42581851387538 BEESAT-3 1 39135U 13015F 21042.57659930 .00000944 00000-0 54534-4 0 9996 2 39135 64.8646 248.7931 0012944 201.2500 158.8091 15.18900030431918 BEESAT-2 1 39136U 13015G 21042.58828141 .00000957 00000-0 55853-4 0 9999 2 39136 64.8730 254.6350 0028124 260.4145 99.3804 15.18287050431408 ZACUBE-1 1 39417U 13066B 21042.48450002 .00000186 00000-0 29635-4 0 9996 2 39417 97.5822 33.4211 0057824 212.9478 146.8127 14.81425554390428 TRITON-1 1 39427U 13066M 21042.64435533 .00000224 00000-0 43453-4 0 9994 2 39427 97.7601 356.7417 0114371 33.7682 327.0741 14.68148472386956 GOMX-1 1 39430U 13066Q 21042.73573339 .00000138 00000-0 33617-4 0 9990 2 39430 97.8101 333.0565 0151238 150.3929 210.5944 14.59532063384706 LO-74 1 39440U 13066AA 21042.51192631 .00000191 00000-0 33618-4 0 9999 2 39440 97.6607 18.1921 0078509 284.5375 74.7137 14.76160213387842 AO-73 1 39444U 13066AE 21042.47744531 .00000231 00000-0 34455-4 0 9995 2 39444 97.5740 35.7487 0057105 203.8474 156.0093 14.82312863388773 SPROUT 1 39770U 14029E 21042.61917964 .00000934 00000-0 10741-3 0 9996 2 39770 97.9066 154.1208 0007654 260.2520 99.7831 14.88173439364621 DUCHIFAT-1 1 40021U 14033M 21042.52422463 .00000360 00000-0 42081-4 0 9993 2 40021 97.9624 341.4807 0011824 214.8338 145.2107 14.91176238361516 NANOSATCBR1 1 40024U 14033Q 21042.54896223 .00000373 00000-0 44300-4 0 9997 2 40024 97.9437 337.0545 0011085 220.1779 139.8619 14.90300957360847 DTUSAT-2 1 40030U 14033W 21042.28201624 .00000256 00000-0 33329-4 0 9999 2 40030 97.9126 329.6015 0010740 225.7874 134.2462 14.88887829360549 EO-80 1 40032U 14033Y 21042.51030581 .00000219 00000-0 29355-4 0 9992 2 40032 97.9133 329.8343 0010657 225.6890 134.3453 14.88842222360559 ANTELSAT 1 40034U 14033AA 21042.50481462 .00000205 00000-0 37646-4 0 9998 2 40034 97.6892 252.3945 0057431 306.8887 52.7067 14.74396713357102 VELOX-1 1 40057U 14034E 21042.69074238 .00000323 00000-0 52330-4 0 9991 2 40057 98.3078 192.7147 0012200 99.8784 260.3802 14.78063167356967 DAURIA DX 1 1 40071U 14037C 21042.75792397 .00000125 00000-0 23546-4 0 9997 2 40071 98.4580 240.4639 0009677 89.6057 270.6259 14.81451164356684 HODOYOSHI-1 1 40299U 14070B 21042.87799558 .00000652 00000-0 29308-4 0 9992 2 40299 97.3003 119.7985 0014540 74.2102 16.2333 15.24465390348280 CHUBUSAT-1 1 40300U 14070C 21042.41239905 .00000866 00000-0 39624-4 0 9999 2 40300 97.2608 110.0870 0021192 90.8675 328.4442 15.22936574347878 QSAT-EOS 1 40301U 14070D 21042.84319613 .00002106 00000-0 79015-4 0 9999 2 40301 97.2693 117.6296 0025963 61.7958 45.4925 15.28016070348474 FIREBIRD FU3 1 40377U 15003B 21042.25705112 .00002682 00000-0 10277-3 0 9990 2 40377 99.0830 157.3178 0119489 235.3823 123.6094 15.21395507333598 FIREBIRD FU4 1 40378U 15003C 21042.76355135 .00002625 00000-0 10051-3 0 9990 2 40378 99.0835 158.0496 0119632 233.5136 125.5026 15.21437234333682 GRIFEX 1 40379U 15003D 21042.74535503 .00001515 00000-0 65948-4 0 9991 2 40379 99.0832 148.3869 0129221 263.6211 95.0288 15.17345986333126 NO-84 1 40654U 15025D 21041.26903970 .00024635 00000-0 21797-3 0 1885 2 40654 54.9824 278.7310 0098202 89.5811 271.6419 15.62441853206089 DEORBITSAIL 1 40719U 15032E 21042.49207843 .00000368 00000-0 58961-4 0 9998 2 40719 97.8449 290.8824 0016701 150.7847 209.4302 14.77231925301380 NUDT-PHONESAT 1 40900U 15049B 21042.87675065 .00002720 00000-0 11020-3 0 9993 2 40900 97.4257 57.8618 0011163 215.1227 265.1960 15.25473928299674 XW-2A 1 40903U 15049E 21042.90761781 .00002588 00000-0 57806-4 0 9996 2 40903 97.2561 97.7208 0014396 110.5915 6.7468 15.44369481303413 XW-2C 1 40906U 15049H 21042.87684095 .00000850 00000-0 47063-4 0 9991 2 40906 97.4846 46.8359 0012991 262.6325 213.0385 15.16477603298531 XW-2D 1 40907U 15049J 21042.83169411 .00000670 00000-0 37552-4 0 9990 2 40907 97.4827 46.5464 0012336 259.4348 223.6437 15.16761314298559 LILACSAT-2 1 40908U 15049K 21042.87590461 .00000571 00000-0 34780-4 0 9998 2 40908 97.5007 44.6123 0014180 274.2889 200.7439 15.14284314298226 XW-2E 1 40909U 15049L 21042.85237361 .00001230 00000-0 61823-4 0 9995 2 40909 97.4670 50.4116 0011795 244.8190 236.1289 15.19094242298866 XW-2F 1 40910U 15049M 21042.87402998 .00001275 00000-0 64869-4 0 9991 2 40910 97.4724 49.5082 0012878 244.9120 200.4971 15.18599628298663 XW-2B 1 40911U 15049N 21042.82751480 .00000699 00000-0 39081-4 0 9997 2 40911 97.4836 47.2371 0012250 260.2185 221.7055 15.16681891298447 DCBB 1 40912U 15049P 21042.88090885 .00001380 00000-0 65128-4 0 9998 2 40912 97.4477 53.8448 0013434 216.5598 228.3073 15.21078013299103 TW-1C 1 40926U 15051B 21042.63329406 .00254952 28600-4 52331-3 0 9999 2 40926 97.0436 104.7092 0003873 233.5529 279.8369 15.99335068304678 TW-1A 1 40928U 15051D 21042.90498009 .00003866 00000-0 85114-4 0 9999 2 40928 97.0898 70.8530 0010973 41.7395 78.1945 15.44491745302304 IO-86 1 40931U 15052B 21042.24311740 .00000630 00000-0 -13000-5 0 9990 2 40931 6.0009 72.4033 0012844 54.9738 305.1565 14.76661181290612 LQSat 1 40958U 15057A 21042.68461075 -.00000000 00000-0 74846-5 0 9995 2 40958 97.8223 103.8474 0019607 100.2334 260.1090 14.73154895287723 ATHENOXAT-1 1 41168U 15077C 21042.54725513 .00002431 00000-0 89529-4 0 9998 2 41168 14.9896 106.3283 0010724 218.8135 178.7067 15.15166744285656 ChubuSat-2 1 41338U 16012B 21042.34022463 .00000320 00000-0 18041-4 0 9995 2 41338 31.0026 267.7906 0013765 323.0172 36.9514 15.00438600273647 ChubuSat-3 1 41339U 16012C 21042.77503043 .00000341 00000-0 19611-4 0 9998 2 41339 31.0126 262.3888 0013813 335.2589 24.7385 15.00593504273703 Horyu-4 1 41340U 16012D 21042.27164910 .00000462 00000-0 28051-4 0 9993 2 41340 31.0042 250.6776 0013805 358.8109 1.2492 15.01738389273801 OUFTI-1 1 41458U 16025C 21042.79993015 .00001535 00000-0 77973-4 0 9999 2 41458 98.1243 172.5295 0161542 123.2132 238.4701 15.07966768263534 e-st@r-II 1 41459U 16025D 21042.78763265 .00002102 00000-0 10617-3 0 9993 2 41459 98.1219 171.7159 0163359 125.7874 235.8653 15.07441987263488 AAUSAT4 1 41460U 16025E 21042.79494377 .00003127 00000-0 14987-3 0 9993 2 41460 98.1199 174.9969 0150833 111.6633 250.0720 15.10222153263740 LO-87 1 41557U 16033B 21042.89264799 .00001574 00000-0 58730-4 0 9992 2 41557 97.3960 137.6027 0012057 326.5479 142.4510 15.28867897262340 NuSat2 1 41558U 16033C 21042.86866672 .00001708 00000-0 59648-4 0 9996 2 41558 97.4038 140.8362 0010981 321.2406 147.5460 15.30944044262503 Lapan A3 1 41603U 16040E 21042.85226098 .00000245 00000-0 14413-4 0 9992 2 41603 97.2770 94.4221 0015228 84.2731 2.5038 15.19958850257501 Swayam 1 41607U 16040J 21042.42743161 .00001511 00000-0 62871-4 0 9992 2 41607 97.2865 101.8415 0014293 67.4503 292.8246 15.25185965257836 Pratham 1 41783U 16059A 21042.63140289 .00000058 00000-0 20436-4 0 9998 2 41783 97.9840 96.9277 0032208 283.1268 76.6340 14.63111130233855 AlSat 1N 1 41789U 16059G 21042.85152685 .00000038 00000-0 16103-4 0 9995 2 41789 97.9876 100.5295 0026947 268.0857 91.7243 14.64386804234068 ScatSat 1 41790U 16059H 21042.70583552 .00000006 00000-0 12798-4 0 9993 2 41790 98.3871 85.1561 0003978 268.1693 91.9044 14.50794895231912 TY-1 1 41844U 16066D 21042.91369528 .00001006 00000-0 42604-4 0 9999 2 41844 97.4015 54.4396 0013661 215.4304 208.1913 15.25410357236767 Pegasus-1 1 41846U 16066F 21042.39485935 .00000206 00000-0 42224-4 0 9993 2 41846 98.6294 100.5556 0365428 241.1921 115.2120 14.37936524223309 CAS-2T 1 41847U 16066G 21042.40892560 .00000065 00000-0 20827-4 0 9990 2 41847 98.6207 100.9073 0364577 236.4307 120.1577 14.38144404223761 EO-88 1 42017U 17008BX 21042.15799182 .00001593 00000-0 61941-4 0 9994 2 42017 97.3321 111.9806 0005927 181.2836 178.8389 15.27480939221972 CAS-4B 1 42759U 17034B 21042.70126666 .00000343 00000-0 34090-4 0 9995 2 42759 43.0169 152.3526 0008022 94.1991 50.1961 15.10067451202131 CAS-4A 1 42761U 17034D 21042.69912243 .00000358 00000-0 34914-4 0 9991 2 42761 43.0169 151.5023 0008467 95.1761 49.2741 15.10148441202130 UCLSat 1 42765U 17036A 21042.11323077 .00001228 00000-0 53026-4 0 9997 2 42765 97.2689 95.5834 0009336 262.9643 97.0533 15.24308421202926 NIUSat 1 42766U 17036B 21042.58848690 .00000907 00000-0 42247-4 0 9998 2 42766 97.2690 92.8377 0013535 257.5033 102.4690 15.22314849202069 LituanicaSAT 2 1 42768U 17036D 21042.56134307 .00001859 00000-0 76340-4 0 9999 2 42768 97.2759 96.4612 0012585 248.2929 111.6970 15.25366346202272 Aalto 1 1 42775U 17036L 21042.55995624 .00000762 00000-0 35956-4 0 9993 2 42775 97.2664 93.1117 0011994 256.6194 103.3705 15.22333059202040 URSA MAIOR 1 42776U 17036M 21042.78007167 .00000811 00000-0 37797-4 0 9995 2 42776 97.2677 93.7215 0011805 255.1214 104.8715 15.22567543202097 Max Valier Sat 1 42778U 17036P 21042.38694040 .00000820 00000-0 37549-4 0 9990 2 42778 97.2739 95.0351 0010358 258.8050 101.2023 15.23201106202098 Pegasus 1 42784U 17036V 21042.38788693 .00001130 00000-0 49562-4 0 9998 2 42784 97.2695 95.4368 0009904 263.4262 96.5848 15.23931524202152 NUDATSat 1 42787U 17036Y 21042.60914521 .00002280 00000-0 92423-4 0 9998 2 42787 97.2745 97.6669 0009043 259.6995 100.3223 15.25610363202140 SUCHAI 1 1 42788U 17036Z 21042.38252064 .00001301 00000-0 55518-4 0 9998 2 42788 97.2706 96.2649 0009434 260.4645 99.5527 15.24618754202278 SKCUBE 1 42789U 17036AA 21042.39169828 .00001228 00000-0 52884-4 0 9996 2 42789 97.2699 96.0425 0009347 261.0889 98.9291 15.24400202202188 VZLUSAT 1 1 42790U 17036AB 21042.40464280 .00001671 00000-0 68555-4 0 9994 2 42790 97.2731 97.4560 0008823 256.3402 103.6854 15.25580951202267 VENTA 1 1 42791U 17036AC 21042.56640977 .00001132 00000-0 49014-4 0 9992 2 42791 97.2697 96.2385 0009024 261.0086 99.0131 15.24371196202204 Robusta 1B 1 42792U 17036AD 21042.11692498 .00001287 00000-0 54948-4 0 9992 2 42792 97.2703 96.1076 0008915 262.3102 97.7124 15.24617265202173 D-SAT 1 42794U 17036AF 21042.50184489 .00000170 00000-0 20243-4 0 9994 2 42794 97.4725 69.0162 0124297 287.0067 71.7563 14.91449817198286 TechnoSat 1 42829U 17042E 21042.64294105 .00000085 00000-0 13811-4 0 9990 2 42829 97.4884 278.7146 0013490 201.4936 158.5718 14.91215860194932 QIKCOM-1 1 42983U 98067NF 21042.84766389 .00005250 00000-0 58961-4 0 9991 2 42983 51.6367 176.5074 0003149 233.3745 126.6961 15.64522105187727 AO-91 1 43017U 17073E 21042.53316263 .00000839 00000-0 70247-4 0 9995 2 43017 97.7163 311.4661 0255664 351.4494 8.2401 14.79308265174507 EcAMSat 1 43019U 98067NG 21042.69528778 .00013336 00000-0 10085-3 0 9991 2 43019 51.6407 152.3249 0002993 239.5180 120.5523 15.72791121270350 PICSAT 1 43132U 18004X 21042.45287047 .00001342 00000-0 56191-4 0 9998 2 43132 97.4223 118.1042 0007743 296.6462 63.3983 15.25289120171472 AO-92 1 43137U 18004AC 21042.68153579 .00000997 00000-0 43109-4 0 9990 2 43137 97.4203 117.9607 0007415 299.2403 60.8092 15.24792673171484 TianYi 2 1 43155U 18008A 21042.87944065 .00000671 00000-0 42498-4 0 9992 2 43155 97.4199 111.5475 0018512 46.6509 66.5241 15.12112905169096 Zhou Enlai 1 43156U 18008B 21042.90209346 .00001144 00000-0 70711-4 0 9998 2 43156 97.4242 111.4046 0015640 47.5577 7.1697 15.11697452169048 TianYi 6 1 43158U 18008D 21042.68406199 .00000673 00000-0 43736-4 0 9993 2 43158 97.4173 109.9417 0014809 45.4485 106.6309 15.11166023168946 S-Net D 1 43186U 18014G 21042.56147048 .00000790 00000-0 73700-4 0 9997 2 43186 97.6860 312.3613 0012114 137.1109 223.1060 14.96966646165463 S-Net B 1 43187U 18014H 21042.49450462 .00000791 00000-0 73771-4 0 9996 2 43187 97.6858 312.2664 0012115 137.3118 222.9047 14.96966084165456 S-Net A 1 43188U 18014J 21042.49445173 .00000794 00000-0 74038-4 0 9990 2 43188 97.6861 312.3056 0012118 137.3735 222.8429 14.96964713165455 S-Net C 1 43189U 18014K 21042.49493943 .00000787 00000-0 73445-4 0 9992 2 43189 97.6857 312.2604 0012104 137.2811 222.9354 14.96965167164000 FMN 1 1 43192U 18015A 21042.90705922 .00002758 00000-0 10659-3 0 9993 2 43192 97.4679 177.9071 0014123 330.5178 145.8258 15.27025649168428 Shaonian Xing 1 43199U 18015H 21042.90196424 .00001893 00000-0 74485-4 0 9998 2 43199 97.4468 175.4958 0015277 340.6267 147.3744 15.26809203168488 SurfSat 1 43614U 18070B 21042.73953746 .00002734 00000-0 66434-4 0 9990 2 43614 93.0232 253.7737 0016592 125.2100 235.0712 15.40925475135301 CP-7 DAVE 1 43615U 18070C 21042.54018576 .00002590 00000-0 63430-4 0 9996 2 43615 93.0235 253.6625 0016766 125.8211 234.4604 15.40681235135263 ELFIN-B 1 43616U 18070D 21042.57687511 .00004195 00000-0 95370-4 0 9992 2 43616 93.0192 253.7402 0016761 125.1473 235.1357 15.42888596135352 ELFIN-A 1 43617U 18070E 21042.56981986 .00004454 00000-0 10012-3 0 9992 2 43617 93.0246 254.4642 0016169 122.1519 238.1309 15.43234904135367 STARS-Me Mother 1 43640U 98067PQ 21042.52375024 .00031953 00000-0 18807-3 0 9992 2 43640 51.6314 167.2434 0003111 239.7641 120.3052 15.77906710134299 CubeBel 1 1 43666U 18083E 21042.83470734 .00001202 00000-0 60822-4 0 9997 2 43666 97.4702 72.7280 0013269 244.1300 220.0134 15.18900758126945 Changshagaoxin 1 43669U 18083H 21042.86294273 .00001048 00000-0 55176-4 0 9999 2 43669 97.4585 70.2138 0009356 235.8225 249.9229 15.17786646126837 Ten-Koh 1 43677U 18084G 21042.57592005 .00000049 00000-0 10947-4 0 9998 2 43677 97.9032 165.4377 0017453 90.2520 270.0697 14.90398576124550 PO-101 1 43678U 18084H 21042.75039969 -.00000293 00000-0 -23395-4 0 9998 2 43678 97.9057 167.5319 0011376 104.0703 256.1785 14.91702618124697 IRVINE 01 1 43693U 18088D 21042.63730348 .00002185 00000-0 86924-4 0 9992 2 43693 85.0328 278.5165 0018573 125.0127 235.2863 15.24464313125267 QO-100 1 43700U 18090A 21042.66517550 .00000128 00000-0 00000 0 0 9996 2 43700 0.0216 122.2152 0002063 240.9209 44.0980 1.00273285 8356 Reaktor Hello World 1 43743U 18096AA 21042.69202347 .00001212 00000-0 46631-4 0 9997 2 43743 97.3978 121.1495 0017502 7.7242 352.4263 15.28228582122920 MinXSS-2 1 43758U 18099A 21042.15318939 .00000757 00000-0 72626-4 0 9998 2 43758 97.6815 115.8952 0017129 110.1520 250.1546 14.95905367119638 AO-95 1 43770U 18099N 21042.44057001 -.00000114 00000-0 -51544-5 0 9990 2 43770 97.6800 115.3353 0015857 116.8587 243.4257 14.95192871119629 RANGE-B 1 43772U 18099Q 21042.22513734 .00000627 00000-0 61731-4 0 9993 2 43772 97.6880 115.9330 0015696 105.8425 254.4528 14.95454927119592 RANGE-A 1 43773U 18099R 21042.43829575 -.00000174 00000-0 -10697-4 0 9994 2 43773 97.6738 114.7764 0014972 104.9186 255.3694 14.95119371119611 MOVE-II 1 43780U 18099Y 21042.44983540 .00000123 00000-0 16119-4 0 9993 2 43780 97.6810 115.7449 0014741 114.6236 245.6522 14.95719393119633 SNUSat 2 1 43782U 18099AA 21042.42709353 .00000271 00000-0 29620-4 0 9996 2 43782 97.6799 115.6192 0014323 104.0608 256.2206 14.95446080119634 SnugLite 1 43784U 18099AC 21042.44558559 -.00000128 00000-0 -63922-5 0 9997 2 43784 97.6761 115.3973 0016405 111.5635 248.7336 14.95557467119659 ITASat 1 1 43786U 18099AE 21042.45216116 -.00000076 00000-0 -17333-5 0 9997 2 43786 97.6816 115.9368 0016512 110.9236 249.3755 14.95502887119653 EAGLET 1 1 43790U 18099AJ 21042.45041416 -.00000145 00000-0 -78751-5 0 9999 2 43790 97.6805 116.2951 0014753 114.3967 245.8795 14.95881482119377 ESEO 1 43792U 18099AL 21042.48423728 .00000521 00000-0 51845-4 0 9994 2 43792 97.6777 116.0134 0014856 111.1436 249.1374 14.95687356119439 CSIM 1 43793U 18099AM 21042.50718183 -.00000038 00000-0 17630-5 0 9999 2 43793 97.6794 116.2355 0014362 108.7066 251.5716 14.96377127119439 Astrocast 0.1 1 43798U 18099AS 21042.41539633 .00000710 00000-0 68229-4 0 9990 2 43798 97.6810 116.4146 0014048 96.2583 264.0239 14.96031171119670 JO-97 1 43803U 18099AX 21042.43564900 -.00000021 00000-0 32103-5 0 9993 2 43803 97.6780 115.6899 0016534 110.6818 249.6178 14.95724534119653 Suomi 100 1 43804U 18099AY 21042.43897782 -.00000123 00000-0 -58942-5 0 9994 2 43804 97.6776 115.6691 0016568 110.7761 249.5237 14.95702106119661 Al Farabi 2 1 43805U 18099AZ 21042.52387253 .00000098 00000-0 13850-4 0 9999 2 43805 97.6782 115.9163 0016538 111.1892 249.1135 14.95877929119684 PWSat 2 1 43814U 18099BJ 21042.68848343 .00490086 00000-0 57463-2 0 9994 2 43814 97.7816 138.8086 0008548 274.7666 85.2613 15.59858297120161 CHOMPTT 1 43855U 18104G 21042.43309968 .00001159 00000-0 46655-4 0 9996 2 43855 85.0379 17.0049 0014909 248.8297 111.1353 15.23575976119908 ISAT 1 43879U 18111D 21042.82986784 .00000798 00000-0 75261-4 0 9993 2 43879 97.6931 312.2604 0013631 157.2599 202.9233 14.96481756114264 UWE-4 1 43880U 18111E 21042.70423524 .00000524 00000-0 50856-4 0 9990 2 43880 97.6957 312.5395 0012626 157.5267 202.6510 14.96725410114276 Sparrow 1 43881U 18111F 21042.54570390 .00000476 00000-0 46603-4 0 9998 2 43881 97.6952 312.4922 0012950 157.5099 202.6693 14.96768097116250 Lume 1 1 43908U 18111AJ 21042.49481451 .00001165 00000-0 48172-4 0 9990 2 43908 97.2473 301.1665 0021476 21.9828 338.2327 15.25747228118461 FO-98 1 43933U 19003B 21042.35175970 .00005630 00000-0 23438-3 0 9998 2 43933 97.2001 88.6276 0019046 118.5930 241.7227 15.23961233114889 FO-99 1 43937U 19003F 21042.37828080 .00001247 00000-0 52053-4 0 9997 2 43937 97.1952 90.5290 0025287 99.1119 261.2982 15.25180359115040 Delphini 1 1 44030U 98067PW 21042.52492420 .00128418 17343-4 38007-3 0 9995 2 44030 51.6266 166.3570 0005504 305.7029 54.3465 15.92324020116178 MYSat 1 1 44045U 18092F 21042.78145530 .00002884 00000-0 84776-4 0 9997 2 44045 51.6392 318.8339 0011585 109.1499 251.0740 15.38567629112109 AstroCast 0.2 1 44083U 19018F 21042.63193325 .00000692 00000-0 33189-4 0 9994 2 44083 97.3908 105.9958 0014349 58.3118 301.9515 15.22088821103758 AISTechSat 3 1 44103U 19018AB 21042.86143694 .00000944 00000-0 42170-4 0 9996 2 44103 97.3780 106.5418 0014845 68.8640 44.8713 15.23703210103888 AISat 1 1 44104U 19018AC 21042.46749313 .00001005 00000-0 33779-4 0 9997 2 44104 97.4381 119.3588 0058918 83.9024 276.8927 15.31660001104389 Raavana-1 1 44329U 98067QE 21042.45896747 .00019156 00000-0 18431-3 0 9993 2 44329 51.6350 209.9200 0005405 181.0764 179.0221 15.66570025 94346 Uguisu 1 44330U 98067QF 21042.49153585 .00018730 00000-0 18195-3 0 9999 2 44330 51.6327 210.0753 0005390 180.3734 179.7259 15.66347423 94320 NepaliSat-1 1 44331U 98067QG 21042.83328024 .00019402 00000-0 18667-3 0 9991 2 44331 51.6326 207.8586 0005327 185.5742 174.5196 15.66561764 94390 Prox-1 1 44339U 19036A 21042.38239040 .00000892 00000-0 16065-3 0 9990 2 44339 24.0013 48.0875 0010217 239.7821 120.1658 14.53363547 86840 Oculus-ASR 1 44348U 19036K 21042.25775724 .00008002 00000-0 11003-3 0 9998 2 44348 28.5134 251.2274 0345560 344.9385 14.1135 15.08079566 89818 Armadillo 1 44352U 19036P 21042.25226669 .00012442 00000-0 16646-3 0 9993 2 44352 28.5279 238.0967 0323241 4.9103 355.4553 15.13453200 89898 NO-104 1 44354U 19036R 21042.27359614 .00008228 00000-0 11085-3 0 9993 2 44354 28.5279 245.9681 0341340 351.8020 7.7099 15.09382902 89866 NO-103 1 44355U 19036S 21042.60964072 .00018851 00000-0 22863-3 0 9990 2 44355 28.5249 216.2530 0298291 40.1344 322.0888 15.20619717 90198 CP9 1 44360U 19036X 21042.67723859 .00045963 -53637-5 40860-3 0 9990 2 44360 28.5066 175.9456 0251272 107.0692 255.7590 15.35686484 90469 Move-IIb 1 44398U 19038N 21042.62045392 .00001820 00000-0 10573-3 0 9999 2 44398 97.5654 7.3553 0025531 26.8402 333.4151 15.13132568 88738 SONATE 1 44400U 19038Q 21042.61041014 .00000916 00000-0 56337-4 0 9993 2 44400 97.5709 7.3032 0025947 26.2507 334.0023 15.12313507 88712 BeeSat 9 1 44412U 19038AC 21042.42350076 .00001027 00000-0 61779-4 0 9996 2 44412 97.5719 7.3072 0023317 31.8817 328.3820 15.12882119 88390 JAISAT-1 1 44419U 19038F 21042.43355276 .00001053 00000-0 62457-4 0 9994 2 44419 97.5722 7.7647 0022123 30.6585 329.5933 15.13366285 88734 LightSail-2 1 44420U 19036AC 21042.29628668 .00005756 00000-0 11686-2 0 9996 2 44420 24.0078 35.5793 0011561 211.4257 148.5545 14.58489542 85123 Taurus 1 1 44530U 19059C 21042.78789802 .00000630 00000-0 18971-3 0 9996 2 44530 98.5558 132.0812 0015528 158.5252 201.6584 14.45890621 74922 Duchifat 3 1 44854U 19089C 21042.60060202 .00000483 00000-0 45192-4 0 9997 2 44854 36.9669 124.8055 0007518 208.3301 151.7032 14.99324372 64204 OPS-SAT 1 44878U 19092F 21042.47910651 .00001059 00000-0 58339-4 0 9991 2 44878 97.4704 227.8537 0012560 245.0516 114.9412 15.16119190 63741 TO-108 1 44881U 19093C 21042.76958413 -.00000006 00000-0 60186-5 0 9992 2 44881 97.9367 122.9110 0014721 347.4317 12.6525 14.81420653 62124 FloripaSat 1 1 44885U 19093G 21042.79189772 .00000242 00000-0 37077-4 0 9996 2 44885 97.9375 123.3399 0014260 355.9503 4.1591 14.82196495 62157 RS-44 1 44909U 19096E 21042.51916121 -.00000004 00000-0 -62765-4 0 9992 2 44909 82.5219 196.4694 0217790 27.8163 333.4385 12.79708481 52730 SwampSat-2 1 45115U 19071E 21042.69159417 .00013367 00000-0 29818-3 0 9996 2 45115 51.6380 277.7140 0010107 192.9761 167.0967 15.43837825 57951 HO-107 1 45119U 19071J 21042.73000236 .00001681 00000-0 60087-4 0 9999 2 45119 51.6420 286.0916 0011655 192.4187 167.6510 15.34867856 57856 Phoenix 1 45258U 98067RB 21042.56564456 .00005064 00000-0 83888-4 0 9998 2 45258 51.6383 237.6606 0006385 145.4302 214.7105 15.54057762 55612 AztechSat-1 1 45261U 98067RE 21042.56325088 .00012237 00000-0 16345-3 0 9991 2 45261 51.6366 233.1547 0007508 165.5427 194.5782 15.58475760 55703 QARMAN 1 45263U 98067RG 21042.57720600 .00008904 00000-0 12956-3 0 9993 2 45263 51.6378 235.4973 0007257 160.3476 199.7797 15.56567173 55705 Quetzal 1 1 45598U 98067RL 21042.55304680 .00008732 00000-0 13356-3 0 9992 2 45598 51.6389 238.3465 0002273 225.1574 134.9233 15.55236795 44939 BY70-2 1 45857U 20042B 21042.82862539 .00000908 00000-0 13715-3 0 9996 2 45857 97.9947 119.8671 0009855 252.7333 107.2785 14.76678694 33005 UPMSat 2 1 46276U 20061E 21042.51134965 .00000437 00000-0 25962-4 0 9999 2 46276 97.4459 118.7598 0003033 86.8434 273.3146 15.16270614 24450 AmicalSat 1 46287U 20061R 21042.43127813 .00000613 00000-0 41336-4 0 9995 2 46287 97.5011 118.4039 0003525 143.8373 216.3096 15.10221811 24322 SALSAT 1 46495U 20068K 21042.33497561 -.00000062 00000-0 11511-7 0 9996 2 46495 97.6838 340.6723 0018214 133.0451 227.2267 15.03343879 20383 BY70-3 1 46839U 20079N 21042.88785308 .00002327 00000-0 75894-4 0 9995 2 46839 97.2543 119.2380 0005743 304.3379 182.5196 15.32789976 14963 SPOC 1 46921U 98067RR 21042.54192915 .00004459 00000-0 80617-4 0 9995 2 46921 51.6408 242.7701 0001381 337.6654 22.4275 15.51891642 15299 Bobcat-1 1 46922U 98067RS 21042.58676480 .00005990 00000-0 10336-3 0 9995 2 46922 51.6414 242.3236 0000930 340.6380 19.4574 15.52515181 15262 Neutron-1 1 46923U 98067RT 21042.54792080 .00004578 00000-0 82853-4 0 9992 2 46923 51.6410 242.8090 0001441 0.4946 359.6045 15.51786190 15327 CAPE 3 1 47309U 21002A 21042.45773169 .00001144 00000-0 64240-4 0 9999 2 47309 60.6879 42.8257 0019356 318.1719 41.7887 15.20332367 3722 OBJECT B 1 47310U 21002B 21042.51798307 .00001579 00000-0 83195-4 0 9991 2 47310 60.6872 42.5519 0017630 320.1574 39.8216 15.20690998 3721 AO-109 1 47311U 21002C 21042.31142369 .00000505 00000-0 34403-4 0 9997 2 47311 60.6874 43.2478 0015338 313.9022 46.0796 15.21237999 3673 OBJECT D 1 47312U 21002D 21042.57236019 .00004156 00000-0 19465-3 0 9998 2 47312 60.6881 42.2547 0015880 315.0853 44.8948 15.21477165 3705 OBJECT E 1 47313U 21002E 21042.56593689 .00001513 00000-0 77828-4 0 9999 2 47313 60.6856 42.2174 0017391 299.4754 60.4597 15.21784758 3712 MiTEE 1 1 47314U 21002F 21042.49059099 .00001365 00000-0 70277-4 0 9990 2 47314 60.6850 42.4130 0015341 292.4631 67.4830 15.22371374 3726 OBJECT G 1 47315U 21002G 21042.48503068 .00000910 00000-0 50330-4 0 9993 2 47315 60.6837 42.3831 0012814 291.2007 68.7711 15.22695860 3726 OBJECT J 1 47317U 21002J 21042.45653550 .00001014 00000-0 58243-4 0 9991 2 47317 60.6877 42.8198 0019108 317.4624 42.4980 15.20403525 3698 OBJECT K 1 47318U 21002K 21042.45603275 .00000977 00000-0 56531-4 0 9996 2 47318 60.6875 42.8168 0018991 317.0827 42.8776 15.20433843 3697 ExoCube 2 1 47319U 21002L 21042.51438701 .00000492 00000-0 34166-4 0 9996 2 47319 60.6871 42.5368 0016559 318.0030 41.9786 15.20880428 3672 OBJECT M 1 47320U 21002M 21042.31243220 .00000757 00000-0 45657-4 0 9997 2 47320 60.6863 43.2500 0015936 313.4649 46.5111 15.21181870 3729 OBJECT N 1 47345U 21002N 21042.50020663 .00001487 00000-0 76693-4 0 9994 2 47345 60.6856 42.4635 0017330 299.2030 60.7322 15.21785749 3449 YUSAT 1 1 47439U 21006AC 21042.39288409 .00000656 00000-0 41006-4 0 9990 2 47439 97.5056 105.7829 0013125 166.8146 193.3430 15.12811084 2991 SOMP 2b 1 47445U 21006AJ 21042.12963800 .00000647 00000-0 40590-4 0 9990 2 47445 97.5028 105.5102 0012725 170.8795 189.2670 15.12695250 2950 IDEASSat 1 47458U 21006AX 21042.39579694 .00000603 00000-0 38254-4 0 9993 2 47458 97.5115 105.7966 0012033 167.5864 192.5665 15.12561475 2999 /EX